Regional Weather Roundup
Issued by NWS Wakefield, VA

Home | Current Version | Previous Version | Graphics & Text | Print | Product List | Glossary On
Versions: 1 2 3 4 5 6 7 8 9 10 11 12 13 14 15 16 17 18 19 20 21 22 23 24 25 26 27 28 29 30 31 32 33 34 35 36 37 38 39 40 41 42 43 44 45 46 47 48 49 50
000
ASUS41 KAKQ 011414
RWRAKQ

REGIONAL WEATHER ROUNDUP
NATIONAL WEATHER SERVICE WAKEFIELD VA
1000 AM EDT WED APR 01 2015

Note: "fair" indicates few or no clouds below 12,000 feet with no
significant weather and/or obstructions to visibility. * = Denotes
station may not report precipitation (e.g., rain,snow,etc.),
thunder or fog.

VAZ042-051-052>054-056-011500-
NORTHERN VIRGINIA

CITY           SKY/WX    TMP DP  RH WIND       PRES   REMARKS
WASH NATIONAL  SUNNY     48  27  44 N9        30.17R
DULLES         MOSUNNY   44  26  49 NW13      30.16R
FORT BELVOIR   SUNNY     46  26  44 NW7       30.16R
QUANTICO       SUNNY     47  24  40 N14G25    30.17R
FREDERICKSBRG* SUNNY     48  26  43 N12       30.15R
STAFFORD*      SUNNY     46  22  38 N13G21    30.19R
WARRENTON      SUNNY     47  34  60 N7        30.15R
CULPEPER*      SUNNY     46  28  49 N6        30.16R
MANASSAS*      SUNNY     45  28  53 NW10G16   30.17R
LEESBURG*      SUNNY     45  32  61 NW10      30.17R
WINCHESTER     SUNNY     45  19  36 NW3       30.14R
FRONT ROYAL*   FAIR      43  30  61 CALM      30.14R
LURAY*         FAIR      46  28  49 CALM      30.14R
$$

VAZ048-049-060>072-079>083-011500-
CENTRAL AND SOUTH CENTRAL VIRGINIA

CITY           SKY/WX    TMP DP  RH WIND       PRES   REMARKS
RICHMOND       MOSUNNY   49  24  37 N14G23    30.13R
CHESTERFIELD*  NOT AVBL
PETERSBURG*    SUNNY     49  24  37 N13       30.14R
HANOVER        SUNNY     48  25  40 VRB7      30.15R
TAPPAHANNOCK*  SUNNY     47  22  37 N9G17     30.14R
QUINTON*       FAIR      46  27  46 N10G17    30.14R
CHARLOTTSVILLE SUNNY     46  28  49 VRB3      30.14R
GORDONSVILLE*  FAIR      47  25  43 NE12      30.13R
ORANGE*        SUNNY     46  30  53 N6        30.16R
LOUISA*        SUNNY     48  28  46 N10       30.13R
BUMPASS*       FAIR      45  28  50 N6        30.13R
FARMVILLE*     SUNNY     48  31  50 N5        30.13R
CREWE*         FAIR      46  26  46 MISG      30.13R
FORT PICKETT*  FAIR      47  28  48 N10       30.13R
CHASE CITY*    FAIR      49  32  51 E5        30.13R
CLARKSVILLE*   FAIR      46  32  57 N7        30.12R
SOUTH HILL*    SUNNY     45  29  52 N9        30.18R
LAWRENCEVILLE* FAIR      47  29  50 N6        30.13R
EMPORIA*       SUNNY     46  28  49 N14G20    30.15R
$$

VAZ088>098-011500-
SOUTHEAST VIRGINIA

CITY           SKY/WX    TMP DP  RH WIND       PRES   REMARKS
NORFOLK        SUNNY     45  28  51 N17       30.11R
VIRGINIA BEACH MOSUNNY   49  32  52 N18       30.10R
NORFOLK NAVAL  MOSUNNY   50  29  44 N17       30.13R
WEST POINT*    SUNNY     49  24  37 N8        30.15R
SALUDA*        FAIR      45  29  52 N9G17     30.13R
NEWPORT NEWS   NOT AVBL
LANGLEY AFB    SUNNY     46  27  46 N17G23    30.10R
FORT EUSTIS    NOT AVBL
WILLIAMSBURG*  SUNNY     50  32  50 N12       30.14R
HR EXEC AP*    FAIR      48  27  43 N9G21     30.13R
FRANKLIN*      SUNNY    N/A N/A N/A N13G20    30.13R
WAKEFIELD      SUNNY     47  27  45 N9G20     30.13R
$$

VAZ020-022-025-037-045-011500-
WEST CENTRAL AND SOUTHWEST VIRGINIA

CITY           SKY/WX    TMP DP  RH WIND       PRES   REMARKS
STAUNTON*      SUNNY     45  26  49 NW5       30.15R
WAYNESBORO*    FAIR      42  26  54 N6        30.12R
HOT SPRINGS VA SUNNY     37  19  49 NW7       30.06R
LYNCHBURG      SUNNY     47  33  58 NE5       30.13R
DANVILLE       SUNNY     52  37  56 NE7       30.13R
SOUTH BOSTON*  FAIR      50  31  49 E5        30.13R
MARTINSVILLE   SUNNY     55  31  39 NE6       30.13R
ROANOKE        SUNNY     51  28  41 VRB5      30.13R
BLACKSBURG     SUNNY     46  26  45 W6        30.14R
DUBLIN*        SUNNY     48  31  51 NW6       30.13R
MARION*        SUNNY     49  23  35 S3        30.14R
HILLSVILLE*    SUNNY     45  26  46 N10       30.10R
RICHLANDS*     FAIR      43  13  30 CALM      30.13R
WISE*          SUNNY     46  28  49 CALM      30.14R
ABINGDON*      SUNNY     51  33  48 CALM      30.13R
$$

MDZ021>025-VAZ099-100-011500-
SOUTHERN MARYLAND AND THE DELMARVA PENINSULA

CITY           SKY/WX    TMP DP  RH WIND       PRES   REMARKS
PATUXENT RIVER SUNNY     45  24  43 N20       30.14R
BAY BRIDGE APT   N/A     43  28  56 NW8       30.15R
LEONARDTOWN    SUNNY     45  25  45 N7        30.15R
DOVER          SUNNY     43  31  62 NW14      30.08F
GEORGETOWN     SUNNY     43  25  49 N14G21    30.12R
EASTON         SUNNY     46  28  49 N12       30.17R
CAMBRIDGE      SUNNY     45  27  49 N15       30.13R
SALISBURY      SUNNY     44  27  51 MISG      30.10R
OCEAN CITY     SUNNY     43  27  53 N13G23    30.09R
WALLOPS ISLAND SUNNY     44  25  47 N13       30.10R
ACCOMACK*      SUNNY     45  27  49 N8G18     30.11R
$$

NCZ012>017-030>032-011500-
NORTH CENTRAL AND EASTERN NORTH CAROLINA

CITY           SKY/WX    TMP DP  RH WIND       PRES   REMARKS
ROANOKE RAPIDS FAIR      46  30  53 NE9G16    30.12R
RALEIGH        MOSUNNY   52  36  54 NE7       30.10R
ELIZABETH CITY SUNNY     48  34  58 N15G23    30.09R
AHOSKIE*       SUNNY     47  27  47 N18       30.12R
EDENTON*       SUNNY     48  32  54 N12G18    30.10R
CURRITUCK*     SUNNY     46  31  56 N15G23    30.09R
KILL DEVIL HLS SUNNY     44  32  62 N13G23    30.08R
MANTEO         SUNNY     44  32  61 N18G24    30.09R
CAPE HATTERAS  SUNNY     46  35  65 N10G31    30.07R
TARBORO*       FAIR      51  31  46 N14       30.12R
GOLDSBORO      SUNNY     54  32  43 N16       30.07R
WASHINGTON     SUNNY     50  32  50 N14G21    30.10R
GREENVILLE     SUNNY     52  32  46 N20       30.12R
NEW BERN       SUNNY     52  36  54 NE14      30.10R
WILMINGTON     PTSUNNY   57  42  57 NE14      30.07R
$$

VAZ048-011500-
ELSEWHERE

CITY           SKY/WX    TMP DP  RH WIND       PRES   REMARKS
HARRISBURG PA  MOSUNNY   43  28  55 NW12G20   30.12R
BALTIMORE      MOSUNNY   45  26  47 NW7       30.14R
ANNAPOLIS      SUNNY     44  25  47 NW12      30.14R
ANDREWS AFB    SUNNY     45  26  48 N12       30.14R
PHILADELPHIA   MOSUNNY   43  24  47 N10G17    30.12R
HENDERSON NC   SUNNY     48  28  46 N10       30.12R
GREENSBORO     MOSUNNY   55  31  39 N12       30.09R
ROCKY MOUNT    SUNNY     51  30  44 NE13      30.11R
$$

VAZ100-011500-
MARINE

STATION/POSITION TIME  TEMP    WIND        PRES    WAVE   SWELL
                       AIR SEA DIR/SP/G            HT/PER HT/PER
                 (UTC) (F)     (DEG/KT/KT) (MB)    (FT/S) (FT/S)
BRANDYWINE LGT   1300   38 40  360/ 19/ 25 1018.6R
CAPE MAY NJ      1300   39 43  340/ 11/ 15 1018.3R
LEWES DE         1300   39 42  350/ 17/ 20 1018.8R
15NM E FENWICK I 1350   39 40              1017.8R   5/ 5
OCEAN-CITY-INLET 1300   39 41  360/ 16/ 20 1017.7R
WACHAPREAGUE VA  1300   43 47  350/  7/ 14 1019.0R
THOMAS POINT MD  1400                        N/A
COVE POINT MD    1300   40     350/ 16/ 17 1019.6R
SOLOMONS ISLAND  1300      44                N/A
BISHOPS HEAD MD  1300      45  350/ 11/ 15 1018.8R
PINEY POINT MD   1300          360/ 15/ 17   N/A
CAMBRIDGE MD     1300   41 45  340/ 15/ 19 1019.4R
LEWISETTA VA     1300   42 45              1019.5R
RAPPAHANNOCK LGT 1300          340/ 16/ 19 1019.9R
STINGRAY PT      1400   43 45   10/ 14/ 19   N/A     2/ 3
YORK RVR RNG VA  1300   42      10/ 18/ 19 1018.9R
YORKTOWN VA      1300   43 47  360/ 15/ 20 1019.5R
DOMINION TERM VA 1300   45     360/  5/ 11 1019.6R
KIPTOPEKE VA     1300      49   10/ 12/ 17   N/A
CHES BAY BRIDGE  1300   42 44  340/ 19/ 20 1018.9R
CAPE HENRY VA    1300   42     350/ 19/ 21 1017.7R
CHESAPEAKE LGHT  1300   41     360/ 23/ 25 1018.8R
WILLOUBY STN VA  1300   42      10/ 17/ 22 1019.9R
S CRANEY ISL VA  1300          360/ 15/ 20 1019.3R
CAPE HENRY BUOY  1328      41                N/A     4/ 5
1ST LANDING BUOY 1400   42     350/ 16/ 21 1019.3R   3/ 4
OFFSHORE WE BUOY 1311      41                N/A     6/ 6   2/12
64NM E OF VA BCH 1350   43 49  350/ 23/ 29 1016.8R   7/ 7   2/12
DUCK PIER NC     1300   41 42  360/ 23/ 26 1016.2S
44056 DUCK FRF   1311      42                N/A     5/ 5
OREGON INLET NC  1300   43 54  360/ 20/ 24 1017.2R
HATTERAS NC      1300   46 56   20/ 26/ 31 1016.9R
CAPE LOOKOUT NC  1400   51      30/ 16/ 19 1018.2R
$$



USA.gov is the U.S. government's official web portal to all federal, state and local government web resources and services.